Regional Weather Roundup
Issued by NWS Sioux Falls, SD

Home | Current Version | Previous Version | Graphics & Text | Print | Product List | Glossary Off
Versions: 1 2 3 4 5 6 7 8 9 10 11 12 13 14 15 16 17 18 19 20 21 22 23 24 25 26 27 28 29 30 31 32 33 34 35 36 37 38 39 40 41 42 43 44 45 46 47 48 49 50

000
ASUS43 KFSD 241210
RWRFSD

WEATHER ROUNDUP FOR SE SOUTH DAKOTA/SW MINNESOTA/NW IOWA
NATIONAL WEATHER SERVICE SIOUX FALLS SD
700 AM CDT SUN MAY 24 2015

NOTE: "FAIR" INDICATES FEW OR NO CLOUDS BELOW 12,000 FEET WITH NO
SIGNIFICANT WEATHER AND OR OBSTRUCTIONS TO VISIBILITY.


SDZ038>040-050-052>070-241300-
SOUTHEAST SOUTH DAKOTA

CITY           SKY/WX    TMP DP  RH WIND       PRES   REMARKS
BROOKINGS      CLOUDY    57  55  94 E7        30.00R
CHAMBERLAIN    CLOUDY    55  55  99 NE5       29.96S FOG
6HR MIN TEMP:  55; 6HR MAX TEMP:  55; 6HR PCP:  0.04;

HURON          CLOUDY    55  54  96 NE6       29.98S FOG
6HR MIN TEMP:  54; 6HR MAX TEMP:  57; 6HR PCP:  0.01;

MADISON        CLOUDY    55  55 100 E8        29.99R
MITCHELL       CLOUDY    58  57  97 NE6       29.97R FOG
6HR MIN TEMP:  57; 6HR MAX TEMP:  58; 6HR PCP:  0.02;

SIOUX FALLS    CLOUDY    59  58  96 E9        29.96S
6HR MIN TEMP:  57; 6HR MAX TEMP:  59; 6HR PCP:  0.10;

WINNER         FOG       56  54  93 E10       29.95R VSB 1/4
YANKTON        CLOUDY    59  55  88 E8        29.93S
$$

MNZ071-072-080-081-089-090-097-098-241300-
SOUTHWEST MINNESOTA

CITY           SKY/WX    TMP DP  RH WIND       PRES   REMARKS
FAIRMONT       CLOUDY    57  52  82 E9        30.02S
JACKSON        CLOUDY    59  57  94 E9        30.02R FOG
LUVERNE        CLOUDY    61  55  82 E9        29.98S
MARSHALL       CLOUDY    57  54  88 E3        30.01R
6HR MIN TEMP:  57; 6HR MAX TEMP:  61; 6HR PCP:  0.01;

MONTEVIDEO     RAIN      57  52  82 SE6       30.03S
REDWOOD FALLS  CLOUDY    58  51  78 CALM      30.01S
TRACY          CLOUDY    59  56  91 E3        30.01R
WINDOM         CLOUDY    59  55  88 CALM      30.01S
WORTHINGTON    CLOUDY    57  54  88 E9        30.00R
$$

IAZ001>003-012>014-020>022-031-032-NEZ013-014-SDZ071-241300-
NORTHWEST IOWA

CITY           SKY/WX    TMP DP  RH WIND       PRES   REMARKS
CHEROKEE       DRIZZLE   58  58 100 E9        29.96F
DENISON        CLOUDY    59  59 100 E15       29.90F FOG
ESTHERVILLE    CLOUDY    57  56  96 SE12      30.01R
LE MARS        CLOUDY    61  59  94 E12G17    29.94F
ORANGE CITY    DRIZZLE   57  57 100 E9        29.95F
SHELDON        CLOUDY    59 N/A N/A E15       29.95F FOG
SIOUX CITY     CLOUDY    61  57  87 E9        29.90F
6HR MIN TEMP:  60; 6HR MAX TEMP:  61; 6HR PCP:  0.18;

SPENCER        CLOUDY    59  57  93 E12       29.99R
6HR MIN TEMP:  59; 6HR MAX TEMP:  63; 6HR PCP:  0.14;

STORM LAKE     CLOUDY    57  57 100 E16       29.96F FOG
$$

ABBREVIATIONS USED IN REMARKS
   TC - TEMPERATURE IN CELSIUS
  WCI - WIND CHILL INDEX
   HX - HEAT INDEX
  VSB - VISIBILITY




USA.gov is the U.S. government's official web portal to all federal, state and local government web resources and services.